Regional Weather Roundup
Issued by NWS

Home | Current Version | Previous Version | Text Only | Print | Product List | Glossary Off
Versions: 1 2 3 4 5 6 7 8 9 10 11 12 13 14 15 16 17 18 19 20 21 22 23 24 25 26 27 28 29 30 31 32 33 34 35 36 37 38 39 40 41 42 43 44 45 46 47 48 49 50

000
ASUS43 KBIS 222120
RWRND

NORTH DAKOTA REGIONAL WEATHER ROUNDUP
NATIONAL WEATHER SERVICE BISMARCK ND
400 PM CDT MON SEP 22 2014

NOTE: "FAIR" INDICATES FEW OR NO CLOUDS BELOW 12,000 FEET WITH NO
SIGNIFICANT WEATHER AND/OR OBSTRUCTIONS TO VISIBILITY.


NDZ001>003-009>011-017-222200-
NORTHWEST NORTH DAKOTA

CITY           SKY/WX    TMP DP  RH WIND       PRES   REMARKS
WILLISTON      SUNNY     84  42  22 SE15G21   29.89F
MINOT          SUNNY     81  45  28 SE13      29.95F
MINOT AFB      SUNNY     80  47  31 S16       29.94F
$$

NDZ018>021-031>035-040>046-222200-
SOUTHWEST NORTH DAKOTA

CITY           SKY/WX    TMP DP  RH WIND       PRES   REMARKS
BISMARCK       SUNNY     83  46  27 S20G28    29.98F
DICKINSON      MOSUNNY   77  48  35 SE20      29.92F
GARRISON         N/A     80  49  33 S12       29.96F
HETTINGER ARPT MOSUNNY   75  47  36 SE18G25   29.95F
$$

NDZ004>008-012>016-024-026-027-054-222200-
NORTHEAST NORTH DAKOTA

CITY           SKY/WX    TMP DP  RH WIND       PRES   REMARKS
GRAND FORKS    SUNNY     77  46  33 S13       30.04F
GRND FRKS AFB  SUNNY     78  45  31 SW10      30.05F
DEVILS LAKE    SUNNY     79  41  25 S13       30.00F
$$

NDZ022-023-025-028>030-036>039-047>053-222200-
SOUTHEAST NORTH DAKOTA

CITY           SKY/WX    TMP DP  RH WIND       PRES   REMARKS
FARGO          SUNNY     77  46  33 S12       30.08F
JAMESTOWN      SUNNY     76  47  35 S12       30.05F
$$




USA.gov is the U.S. government's official web portal to all federal, state and local government web resources and services.